| time (UTC) | temp F | wind direction | speed MPH | gust MPH | rain 1hr in | rain 24hr in | rain mn in | humidity % | barometer mb |
| 20260509211523 | 90 | 223 | 0.0 | 5.0 | 0.00 | 0.00 | 0.00 | 44 | 1008.9 |
| 20260509210023 | 89 | 220 | 0.0 | 3.0 | 0.00 | 0.00 | 0.00 | 48 | 1009.2 |
| 20260509204518 | 90 | 224 | 0.0 | 4.0 | 0.00 | 0.00 | 0.00 | 50 | 1009.4 |
| 20260509203020 | 91 | 261 | 0.0 | 5.0 | 0.00 | 0.00 | 0.00 | 48 | 1009.6 |
| 20260509201513 | 92 | 238 | 0.0 | 5.0 | 0.00 | 0.00 | 0.00 | 47 | 1009.7 |
| 20260509200009 | 90 | 159 | 2.0 | 9.0 | 0.00 | 0.00 | 0.00 | 47 | 1010.0 |
| 20260509194511 | 90 | 143 | 2.0 | 8.0 | 0.00 | 0.00 | 0.00 | 48 | 1010.3 |
| 20260509193005 | 88 | 267 | 1.0 | 6.0 | 0.00 | 0.00 | 0.00 | 52 | 1010.5 |
| 20260509191504 | 89 | 168 | 0.0 | 3.0 | 0.00 | 0.00 | 0.00 | 50 | 1010.9 |
| 20260509190001 | 90 | 167 | 1.0 | 5.0 | 0.00 | 0.00 | 0.00 | 50 | 1011.0 |
| 20260509184602 | 89 | 273 | 0.0 | 5.0 | 0.00 | 0.00 | 0.00 | 53 | 1011.0 |
| 20260509183136 | 89 | 271 | 0.0 | 7.0 | 0.00 | 0.00 | 0.00 | 54 | 1011.2 |
| 20260509181609 | 87 | 228 | 1.0 | 4.0 | 0.00 | 0.00 | 0.00 | 57 | 1011.4 |
| 20260509180051 | 87 | 170 | 0.0 | 2.0 | 0.00 | 0.00 | 0.00 | 57 | 1011.5 |
| 20260509174550 | 87 | 169 | 2.0 | 7.0 | 0.00 | 0.00 | 0.00 | 56 | 1011.8 |
| 20260509173045 | 86 | 265 | 0.0 | 7.0 | 0.00 | 0.00 | 0.00 | 58 | 1011.8 |
| 20260509171544 | 85 | 198 | 1.0 | 4.0 | 0.00 | 0.00 | 0.00 | 62 | 1011.8 |
| 20260509170038 | 84 | 268 | 1.0 | 6.0 | 0.00 | 0.00 | 0.00 | 64 | 1012.0 |
| 20260509164534 | 82 | 165 | 0.0 | 5.0 | 0.00 | 0.00 | 0.00 | 67 | 1012.0 |
| 20260509163033 | 81 | 267 | 1.0 | 5.0 | 0.00 | 0.00 | 0.00 | 71 | 1012.1 |
| 20260509161529 | 79 | 146 | 1.0 | 3.0 | 0.00 | 0.00 | 0.00 | 72 | 1012.3 |
| 20260509160025 | 78 | 136 | 0.0 | 5.0 | 0.00 | 0.00 | 0.00 | 72 | 1012.1 |
| 20260509154522 | 77 | 138 | 1.0 | 5.0 | 0.00 | 0.00 | 0.00 | 73 | 1012.1 |
| 20260509153018 | 75 | 137 | 2.0 | 7.0 | 0.00 | 0.00 | 0.00 | 72 | 1011.8 |
| 20260509151516 | 75 | 132 | 0.0 | 4.0 | 0.00 | 0.00 | 0.00 | 70 | 1012.5 |
| 20260509150015 | 73 | 59 | 0.0 | 2.0 | 0.00 | 0.00 | 0.00 | 62 | 1012.7 |
| 20260509144517 | 72 | 59 | 0.0 | 3.0 | 0.00 | 0.00 | 0.00 | 59 | 1012.8 |
| 20260509143006 | 72 | 53 | 0.0 | 2.0 | 0.00 | 0.00 | 0.00 | 58 | 1012.8 |
| 20260509141503 | 72 | 52 | 0.0 | 1.0 | 0.00 | 0.00 | 0.00 | 56 | 1012.4 |
| 20260509140001 | 72 | 52 | 0.0 | 1.0 | 0.00 | 0.00 | 0.00 | 55 | 1011.6 |
| 20260509134601 | 71 | 52 | 0.0 | 0.0 | 0.00 | 0.00 | 0.00 | 56 | 1011.6 |
| 20260509133105 | 70 | 52 | 0.0 | 0.0 | 0.00 | 0.00 | 0.00 | 56 | 1011.9 |
| 20260509131555 | 70 | 52 | 0.0 | 0.0 | 0.00 | 0.00 | 0.00 | 56 | 1012.2 |
| 20260509130053 | 70 | 52 | 0.0 | 3.0 | 0.00 | 0.00 | 0.00 | 57 | 1012.0 |
| 20260509124552 | 71 | 64 | 0.0 | 1.0 | 0.00 | 0.00 | 0.00 | 57 | 1011.9 |
| 20260509123053 | 70 | 64 | 0.0 | 1.0 | 0.00 | 0.00 | 0.00 | 57 | 1012.0 |
| 20260509121551 | 70 | 65 | 0.0 | 3.0 | 0.00 | 0.00 | 0.00 | 57 | 1011.9 |
| 20260509120053 | 70 | 64 | 1.0 | 3.0 | 0.00 | 0.00 | 0.00 | 58 | 1011.7 |
| 20260509114548 | 70 | 317 | 0.0 | 5.0 | 0.00 | 0.00 | 0.00 | 58 | 1012.1 |
| 20260509113048 | 70 | 342 | 0.0 | 7.0 | 0.00 | 0.00 | 0.00 | 58 | 1012.0 |
| 20260509111549 | 70 | 23 | 0.0 | 3.0 | 0.00 | 0.00 | 0.00 | 59 | 1011.8 |
| 20260509110044 | 71 | 132 | 0.0 | 0.0 | 0.00 | 0.00 | 0.00 | 59 | 1011.1 |
| 20260509104545 | 71 | 132 | 0.0 | 1.0 | 0.00 | 0.00 | 0.00 | 59 | 1011.3 |
| 20260509103043 | 71 | 132 | 0.0 | 1.0 | 0.00 | 0.00 | 0.00 | 59 | 1011.5 |
| 20260509101551 | 71 | 132 | 0.0 | 2.0 | 0.00 | 0.00 | 0.00 | 60 | 1011.5 |
| 20260509100041 | 71 | 132 | 0.0 | 2.0 | 0.00 | 0.00 | 0.00 | 60 | 1011.3 |
| 20260509094541 | 71 | 132 | 0.0 | 1.0 | 0.00 | 0.00 | 0.00 | 60 | 1011.0 |
| 20260509093052 | 71 | 132 | 0.0 | 1.0 | 0.00 | 0.00 | 0.00 | 61 | 1010.6 |
| 20260509091540 | 71 | 132 | 0.0 | 0.0 | 0.00 | 0.00 | 0.00 | 61 | 1010.5 |
| 20260509090037 | 71 | 132 | 0.0 | 0.0 | 0.00 | 0.00 | 0.00 | 61 | 1010.7 |
| 20260509084545 | 71 | 132 | 0.0 | 0.0 | 0.00 | 0.00 | 0.00 | 62 | 1010.5 |
| 20260509083037 | 71 | 132 | 0.0 | 1.0 | 0.00 | 0.00 | 0.00 | 62 | 1010.6 |
| 20260509081539 | 71 | 132 | 0.0 | 1.0 | 0.00 | 0.00 | 0.00 | 62 | 1010.9 |
| 20260509080048 | 71 | 132 | 0.0 | 3.0 | 0.00 | 0.00 | 0.00 | 63 | 1010.8 |
| 20260509074537 | 71 | 132 | 0.0 | 1.0 | 0.00 | 0.00 | 0.00 | 63 | 1010.5 |
| 20260509073037 | 71 | 132 | 0.0 | 2.0 | 0.00 | 0.00 | 0.00 | 64 | 1010.7 |
| 20260509071532 | 71 | 132 | 0.0 | 2.0 | 0.00 | 0.00 | 0.00 | 64 | 1010.5 |
| 20260509070031 | 71 | 132 | 0.0 | 3.0 | 0.00 | 0.00 | 0.00 | 65 | 1010.6 |
| 20260509064529 | 71 | 132 | 0.0 | 2.0 | 0.00 | 0.00 | 0.00 | 65 | 1010.7 |
| 20260509063025 | 71 | 132 | 0.0 | 3.0 | 0.00 | 0.00 | 0.00 | 66 | 1010.9 |
| 20260509061524 | 71 | 132 | 0.0 | 2.0 | 0.00 | 0.00 | 0.00 | 66 | 1011.0 |
| 20260509060026 | 71 | 132 | 0.0 | 1.0 | 0.00 | 0.00 | 0.00 | 66 | 1011.0 |
| 20260509054523 | 70 | 133 | 0.0 | 2.0 | 0.00 | 0.00 | 0.00 | 66 | 1011.4 |
| 20260509053032 | 70 | 134 | 0.0 | 3.0 | 0.00 | 0.00 | 0.00 | 67 | 1011.6 |
| 20260509051528 | 70 | 134 | 0.0 | 1.0 | 0.00 | 0.00 | 0.00 | 67 | 1011.7 |
| 20260509050017 | 70 | 135 | 0.0 | 2.0 | 0.00 | 0.00 | 0.00 | 67 | 1011.5 |
| 20260509044515 | 70 | 123 | 0.0 | 5.0 | 0.00 | 0.00 | 0.00 | 68 | 1011.5 |
| 20260509043014 | 69 | 99 | 0.0 | 2.0 | 0.00 | 0.00 | 0.00 | 69 | 1011.1 |
| 20260509041513 | 69 | 99 | 0.0 | 1.0 | 0.00 | 0.00 | 0.00 | 71 | 1011.1 |
| 20260509040013 | 69 | 99 | 0.0 | 2.0 | 0.00 | 0.00 | 0.00 | 73 | 1010.7 |
| 20260509034513 | 69 | 99 | 0.0 | 1.0 | 0.00 | 0.00 | 0.00 | 74 | 1010.7 |
| 20260509033012 | 70 | 99 | 0.0 | 1.0 | 0.00 | 0.00 | 0.00 | 74 | 1010.6 |
| 20260509031513 | 70 | 99 | 0.0 | 2.0 | 0.00 | 0.00 | 0.00 | 74 | 1010.6 |
| 20260509030011 | 71 | 99 | 0.0 | 1.0 | 0.00 | 0.00 | 0.00 | 74 | 1010.6 |
| 20260509024512 | 71 | 99 | 0.0 | 5.0 | 0.00 | 0.00 | 0.00 | 75 | 1010.7 |
| 20260509023009 | 71 | 99 | 0.0 | 2.0 | 0.00 | 0.00 | 0.00 | 75 | 1010.6 |
| 20260509021509 | 71 | 99 | 0.0 | 0.0 | 0.00 | 0.00 | 0.00 | 75 | 1010.2 |
| 20260509020012 | 71 | 99 | 1.0 | 3.0 | 0.00 | 0.00 | 0.00 | 75 | 1010.0 |
| 20260509014522 | 72 | 99 | 0.0 | 3.0 | 0.00 | 0.00 | 0.00 | 75 | 1009.7 |
| 20260509013007 | 72 | 99 | 2.0 | 6.0 | 0.00 | 0.00 | 0.00 | 75 | 1009.5 |
| 20260509011507 | 73 | 99 | 0.0 | 5.0 | 0.00 | 0.00 | 0.00 | 75 | 1009.4 |
| 20260509010006 | 73 | 99 | 1.0 | 5.0 | 0.00 | 0.00 | 0.00 | 75 | 1009.4 |
| 20260509004507 | 74 | 99 | 1.0 | 5.0 | 0.00 | 0.00 | 0.00 | 74 | 1009.4 |
| 20260509003012 | 74 | 99 | 0.0 | 3.0 | 0.00 | 0.00 | 0.00 | 74 | 1009.4 |
| 20260509001503 | 74 | 99 | 0.0 | 3.0 | 0.00 | 0.00 | 0.00 | 74 | 1009.4 |
| 20260509000003 | 74 | 99 | 0.0 | 3.0 | 0.00 | 0.00 | 0.00 | 74 | 1009.4 |
| 20260508234502 | 74 | 99 | 1.0 | 5.0 | 0.00 | 0.00 | 0.00 | 73 | 1009.6 |
| 20260508233002 | 75 | 99 | 0.0 | 5.0 | 0.00 | 0.00 | 0.00 | 72 | 1009.5 |
| 20260508231600 | 75 | 99 | 1.0 | 6.0 | 0.00 | 0.00 | 0.00 | 72 | 1009.5 |
| 20260508230100 | 75 | 101 | 2.0 | 6.0 | 0.00 | 0.00 | 0.00 | 73 | 1009.4 |
| 20260508224615 | 74 | 104 | 2.0 | 6.0 | 0.00 | 0.00 | 0.00 | 72 | 1009.6 |
| 20260508223053 | 74 | 103 | 3.0 | 7.0 | 0.00 | 0.00 | 0.00 | 73 | 1009.6 |
| 20260508221551 | 74 | 104 | 2.0 | 7.0 | 0.00 | 0.00 | 0.00 | 73 | 1009.8 |
| 20260508220050 | 74 | 103 | 2.0 | 10.0 | 0.00 | 0.00 | 0.00 | 73 | 1009.8 |
| 20260508214548 | 74 | 91 | 2.0 | 8.0 | 0.00 | 0.00 | 0.00 | 73 | 1010.0 |
| 20260508213046 | 73 | 109 | 2.0 | 8.0 | 0.00 | 0.00 | 0.00 | 73 | 1010.1 |